Location: Boissi�res
(45.2500°N, 2.3667°E)
Time: 20:43:28
(UTC+00:00)

Cosmos 1943 Rocket - Pass Details

Date: 03 March 2021
Orbit: 811 x 844 km, 71.0° (Epoch: 17 April)

Event Time Altitude Azimuth Distance (km) Brightness Sun altitude
Rises 20:43:50 0° 341° (NNW) 3,414 5.9 -32.2°
Reaches altitude 10° 20:46:53 10° 357° (N) 2,474 4.9 -32.7°
Enters shadow 20:48:41 17° 13° (NNE) 2,040 4.3 -33.0°
